This is the latest recevied weather packets stored in our database for station/object IQ5QD-13. If no packets are shown the sender has not sent any weather packets the latest 10 day(s).
| Time | Temp. | Humidity | Pressure | Rain* | Wind** | Luminosity | Snow |
|---|---|---|---|---|---|---|---|
| 1777622722 | 17.22° C | 40% | 1021.1 hPa | 0 mm | - | 415 W/m² | - |
| 1777617972 | 15.56° C | 47% | 1020.9 hPa | 0 mm | - | 224 W/m² | - |
| 1777616754 | 15° C | 48% | 1020.8 hPa | 0 mm | - | 183 W/m² | - |
| 1777614961 | 14.44° C | 50% | 1020.7 hPa | 0 mm | - | 126 W/m² | - |
| 1777605378 | 9.44° C | 54% | 1019.9 hPa | 0 mm | - | 0 W/m² | - |
| 1777599954 | 13.89° C | 40% | 1019.5 hPa | 0 mm | - | 0 W/m² | - |
| 1777596369 | 13.33° C | 39% | 1019.2 hPa | 0 mm | - | 0 W/m² | - |
| 1777591570 | 13.89° C | 40% | 1019.1 hPa | 0 mm | - | 0 W/m² | - |
| 1777589133 | 12.78° C | 36% | 1019 hPa | 0 mm | - | 0 W/m² | - |
| 1777588562 | 11.67° C | 39% | 1019 hPa | 0 mm | - | 0 W/m² | - |
| 1777569927 | 18.33° C | 31% | 1015.4 hPa | 0 mm | - | 30 W/m² | - |
| 1777566357 | 20° C | 34% | 1015.1 hPa | 0 mm | - | 149 W/m² | - |
| 1777559752 | 21.11° C | 37% | 1015 hPa | 0 mm | - | 449 W/m² | - |
| 1777556792 | 21.67° C | 37% | 1015.3 hPa | 0 mm | - | 559 W/m² | - |
| 1777554338 | 21.11° C | 39% | 1015.7 hPa | 0 mm | - | 628 W/m² | - |
| 1777553153 | 21.11° C | 40% | 1015.9 hPa | 0 mm | - | 652 W/m² | - |
| 1777550738 | 20.56° C | 41% | 1016.1 hPa | 0 mm | - | 685 W/m² | - |
| 1777546579 | 20.56° C | 43% | 1016.1 hPa | 0 mm | - | 687 W/m² | - |
| 1777540566 | 19.44° C | 46% | 1016.2 hPa | 0 mm | - | 564 W/m² | - |
| 1777530371 | 17.22° C | 68% | 1015 hPa | 0 mm | - | 114 W/m² | - |
| 1777529123 | 16.67° C | 67% | 1014.9 hPa | 0 mm | - | 82 W/m² | - |
| 1777524979 | 15.56° C | 71% | 1014.1 hPa | 0 mm | - | 18 W/m² | - |
| 1777521971 | 15.56° C | 72% | 1013.7 hPa | 0 mm | - | 1 W/m² | - |
| 1777511783 | 15.56° C | 70% | 1012.7 hPa | 0 mm | - | 0 W/m² | - |
| 1777509920 | 14.44° C | 73% | 1012.6 hPa | 0 mm | - | 0 W/m² | - |
* Rain latest hour (hover to see other rain measurements)
** Current wind speed in m/s (hover to see current wind gust speed)